#datint,netname,site,siteid,timestamp,airt,airt_max,airt_min,airt_avg,precip_tb,soilm2,soilm4,soilm8,soilm20,soilm40,soil1t2,soil1t4,soil1t8,soil1t20,soil1t40,windd_avg,winds_max,winds_avg,rh,solarw_avg,solarmj,Td_avg,ea_avg,rh_min,rh_max,esat_avg,eto,etr
hour,USCAN,bluecreek,2135,15JUN2019:00:00:00,14.2,14.2,13.5,13.8,0,17.6,19.2,25.5,26.7,23.6,19.6,20.3,19.3,15.7,12.5,81,4.157472,2.68224,67,0.11,0.000396,8.3,1.09,67,72,1.58,.,.
hour,USCAN,bluecreek,2135,15JUN2019:01:00:00,13.2,14.2,12.8,13.5,0,17.1,19.2,24.9,26.2,23.4,19.1,19.7,19.2,15.7,12.5,72,3.397504,2.503424,71,0.13,0.000468,8.2,1.08,67,73,1.55,.,.
hour,USCAN,bluecreek,2135,15JUN2019:02:00:00,13.1,13.2,12.4,12.9,0,17.1,18.7,25,25.9,23.4,18.6,19.1,19.1,15.7,12.5,75,3.755136,2.771648,69,0.12,0.000432,7.9,1.06,69,75,1.48,.,.
hour,USCAN,bluecreek,2135,15JUN2019:03:00:00,13.6,13.6,12.1,12.6,0,16.9,19.1,25,25.9,23.3,18.2,18.8,18.9,15.8,12.5,79,3.755136,2.771648,68,0.12,0.000432,7.7,1.05,68,75,1.46,.,.
hour,USCAN,bluecreek,2135,15JUN2019:04:00:00,12.5,13.6,12.4,12.8,0,16.9,18.6,25,25.9,23.4,17.7,18.4,18.8,15.8,12.5,77,4.02336,2.861056,73,0.12,0.000432,7.9,1.06,68,74,1.48,.,.
hour,USCAN,bluecreek,2135,15JUN2019:05:00:00,13.4,13.4,12,12.3,0,17.1,18.9,25.2,26.5,23.4,17.4,18,18.6,15.8,12.5,84,3.710432,2.726944,64,1.06,0.003816,7.4,1.03,64,74,1.43,.,.
hour,USCAN,bluecreek,2135,15JUN2019:06:00:00,11.9,13.4,11.2,12.3,0,16.6,19,25.1,26.5,23.7,17.1,17.5,18.4,15.8,12.5,98,2.369312,1.34112,77,56.83,0.204588,6.9,1,64,77,1.43,.,.
hour,USCAN,bluecreek,2135,15JUN2019:07:00:00,18.1,18.1,11.9,14.9,0,17,18.5,24.8,25.9,23.3,16.9,17.3,18.2,15.9,12.5,79,2.637536,1.072896,53,224.9,0.80964,8.7,1.13,53,77,1.7,.,.
hour,USCAN,bluecreek,2135,15JUN2019:08:00:00,19.7,19.7,18.1,18.8,0,16.8,18.9,24.6,25.9,23.7,17.1,17.3,18,15.9,12.5,181,2.369312,0.89408,49,408.1,1.46916,8.6,1.12,49,53,2.17,.,.
hour,USCAN,bluecreek,2135,15JUN2019:09:00:00,21.7,21.7,19.7,20.6,0,17,18.4,24.4,26.2,23.7,17.5,17.7,17.9,15.9,12.5,184,3.12928,1.78816,43,584.1,2.10276,9,1.15,43,49,2.43,.,.
hour,USCAN,bluecreek,2135,15JUN2019:10:00:00,22.9,23,21.7,22.4,0,16.9,19.1,25,25.8,22.9,18.4,18.4,17.8,15.9,12.6,148,3.531616,1.56464,30,677.7,2.43972,5.5,0.91,28,43,2.7,.,.
hour,USCAN,bluecreek,2135,15JUN2019:11:00:00,22.8,23.9,22.8,23.5,0,17.5,18.7,24.6,25.8,23.4,19.5,19.1,17.7,15.9,12.6,200,5.185664,1.654048,37,643.9,2.31804,5.9,0.93,30,37,2.9,.,.
hour,USCAN,bluecreek,2135,15JUN2019:12:00:00,24,24.7,22.8,23.9,0,17.2,19.2,24.4,26,23.4,20.7,19.7,17.7,15.9,12.6,222,7.242048,3.173984,31,826,2.9736,6.6,0.98,29,37,2.97,.,.
hour,USCAN,bluecreek,2135,15JUN2019:13:00:00,26,26,24,25.2,0,17.7,19.1,24.6,25.7,23.6,22.8,20.9,17.8,15.9,12.6,230,8.314944,4.515104,21,968,3.4848,4.5,0.84,21,31,3.21,.,.
hour,USCAN,bluecreek,2135,15JUN2019:14:00:00,25.2,26,25.2,25.7,0,18.3,19.4,24.7,26.1,23.2,25,22.4,18,15.8,12.6,209,7.644384,3.665728,23,940,3.384,1.8,0.7,20,23,3.3,.,.
hour,USCAN,bluecreek,2135,15JUN2019:15:00:00,26.6,26.6,25.2,25.9,0,18.4,19.4,24.6,26.3,23.2,26.7,23.9,18.2,15.8,12.6,222,8.49376,3.3528,20,843,3.0348,3,0.76,20,25,3.34,.,.
hour,USCAN,bluecreek,2135,15JUN2019:16:00:00,25.8,26.9,25.4,26.3,0,18.4,19.4,24.6,25.7,23.2,27,24.9,18.5,15.8,12.6,207,8.9408,3.933952,20,708.4,2.55024,2.1,0.71,18,23,3.42,.,.
hour,USCAN,bluecreek,2135,15JUN2019:17:00:00,26,27.3,25.8,26.4,0,18.1,19.3,24.6,25.9,23.2,26.6,25.1,18.8,15.8,12.6,233,7.242048,4.02336,21,533.2,1.91952,1.7,0.69,17,23,3.45,.,.
hour,USCAN,bluecreek,2135,15JUN2019:18:00:00,26,26.5,25.9,26.2,0,18.1,19.4,24.5,25.8,23.2,25.9,25.1,19.2,15.8,12.6,280,6.616192,3.844544,21,430.7,1.55052,1.1,0.66,17,21,3.4,.,.
hour,USCAN,bluecreek,2135,15JUN2019:19:00:00,24,26,24,25.2,0,17.9,19.1,24.6,25.8,23.4,24.8,24.7,19.5,15.8,12.6,297,5.319776,2.861056,31,225.3,0.81108,3,0.76,21,31,3.21,.,.
hour,USCAN,bluecreek,2135,15JUN2019:20:00:00,20.6,24,20.6,22.6,0,17.4,19.5,24.7,25.8,23.5,23.7,23.9,19.8,15.8,12.6,353,3.442208,2.101088,41,63.02,0.226872,6.6,0.98,31,41,2.75,.,.
hour,USCAN,bluecreek,2135,15JUN2019:21:00:00,17.8,20.6,17.8,19.6,0,17.6,19.2,24.5,25.8,23.4,22.7,23.3,19.9,15.9,12.7,36,3.397504,2.369312,48,1.5,0.0054,7,1,41,48,2.28,.,.
hour,USCAN,bluecreek,2135,15JUN2019:22:00:00,16.6,17.8,15.7,17.2,0,17.5,19.4,24.9,25.8,23.2,21.8,22.4,20,15.9,12.6,61,3.218688,2.2352,47,0.08,0.000288,5.9,0.93,43,53,1.97,.,.
hour,USCAN,bluecreek,2135,15JUN2019:23:00:00,16.8,16.8,15.6,16.1,0,17,19.1,24.9,25.9,23.3,21,21.5,20,16,12.7,54,3.12928,2.279904,43,0.06,0.000216,4.8,0.86,43,50,1.83,.,.
hour,USCAN,bluecreek,2135,16JUN2019:00:00:00,15.2,17.4,15.2,16.7,0,16.8,18.3,25.1,25.9,23.8,20.4,20.9,19.9,16,12.7,47,3.3528,2.2352,46,0.06,0.000216,3.5,0.78,40,46,1.9,.,.
hour,USCAN,bluecreek,2135,16JUN2019:01:00:00,12.9,15.2,12.9,14.6,0,16.6,19,24.5,25.9,23.5,19.7,20.3,19.8,16.1,12.7,62,3.084576,1.34112,51,0.08,0.000288,3.2,0.77,43,51,1.66,.,.
hour,USCAN,bluecreek,2135,16JUN2019:02:00:00,15.1,15.1,12.9,13.6,0,17,19,24.6,25.9,23.7,19.1,19.7,19.6,16.1,12.7,66,2.816352,1.654048,40,0.13,0.000468,2.4,0.73,40,51,1.56,.,.
hour,USCAN,bluecreek,2135,16JUN2019:03:00:00,14.9,17.2,14.7,16,0,16.6,19.3,24.8,25.9,23.7,18.6,19.3,19.5,16.1,12.7,71,3.308096,2.279904,36,0.1,0.00036,0.4,0.63,30,40,1.82,.,.
hour,USCAN,bluecreek,2135,16JUN2019:04:00:00,13.4,14.9,13.4,14.3,0,16.9,18.8,24.6,25.7,23.8,18.2,18.8,19.3,16.2,12.7,48,3.218688,1.207008,41,0.11,0.000396,0.1,0.61,36,41,1.63,.,.
hour,USCAN,bluecreek,2135,16JUN2019:05:00:00,13.4,13.4,12.3,12.9,0,16.3,18.5,24.5,25.7,23.9,17.8,18.4,19.1,16.2,12.8,57,2.548128,1.072896,40,1.49,0.005364,0.5,0.63,40,45,1.49,.,.
hour,USCAN,bluecreek,2135,16JUN2019:06:00:00,13.7,13.7,12.1,12.7,0,16.3,18.9,24.6,25.7,23.5,17.3,18,18.9,16.2,12.8,76,3.039872,1.966976,49,51.69,0.186084,1.1,0.66,40,49,1.47,.,.
hour,USCAN,bluecreek,2135,16JUN2019:07:00:00,19,19,13.7,16.1,0,16.6,18.5,24.6,25.7,23.8,17.2,17.7,18.7,16.2,12.8,54,2.995168,1.922272,31,228.6,0.82296,2.5,0.73,31,49,1.84,.,.
hour,USCAN,bluecreek,2135,16JUN2019:08:00:00,20.4,20.4,18.8,19.3,0,16.4,18.5,24.4,25.9,23.9,17.4,17.7,18.5,16.3,12.8,8,4.02336,2.101088,23,422.6,1.52136,2.7,0.75,23,41,2.24,.,.
hour,USCAN,bluecreek,2135,16JUN2019:09:00:00,21.4,21.4,20.4,20.7,0,16.9,18.2,24.1,25,23.8,17.7,17.9,18.4,16.3,12.8,0,5.856224,3.3528,26,599.4,2.15784,-1.4,0.55,21,26,2.44,.,.
hour,USCAN,bluecreek,2135,16JUN2019:10:00:00,23,23,21.4,22,0,16.4,18.5,24.4,25.4,23.9,18.4,18.4,18.2,16.3,12.8,12,3.3528,1.475232,18,743.3,2.67588,0.5,0.64,18,26,2.65,.,.
hour,USCAN,bluecreek,2135,16JUN2019:11:00:00,23.6,24.4,23,23.5,0,16.9,18.6,23.9,25.8,23.7,19.8,19.1,18.1,16.3,12.8,136,3.397504,1.251712,18,863,3.1068,-1.5,0.55,18,22,2.9,.,.
hour,USCAN,bluecreek,2135,16JUN2019:12:00:00,24.6,25,23.6,24.4,0,17,19.1,23.9,25.5,23.4,21.4,20.3,18.1,16.3,12.8,246,7.063232,2.01168,17,902,3.2472,-0.8,0.58,17,22,3.06,.,.
hour,USCAN,bluecreek,2135,16JUN2019:13:00:00,26.5,26.5,24.6,25.4,0,17.3,19.3,23.9,25.5,23.3,23.3,21.5,18.2,16.2,12.8,247,8.404352,3.755136,14,955,3.438,-2.3,0.52,14,18,3.25,.,.
hour,USCAN,bluecreek,2135,16JUN2019:14:00:00,25.9,26.5,25.4,26,0,17.5,19,24.1,26.1,23.4,25.6,22.8,18.3,16.2,12.8,275,8.49376,4.291584,14,928,3.3408,-2.2,0.52,14,18,3.36,.,.
hour,USCAN,bluecreek,2135,16JUN2019:15:00:00,26.2,26.9,25.9,26.2,0,17.6,19.3,23.9,25.5,23.7,27.2,24.4,18.6,16.2,12.8,236,7.331456,3.173984,20,834,3.0024,-1.6,0.54,14,20,3.41,.,.
hour,USCAN,bluecreek,2135,16JUN2019:16:00:00,27.4,27.4,26.2,26.4,0,18,19.8,24,25.5,23.3,27.6,25.4,18.9,16.2,12.8,242,7.554976,2.995168,14,713.6,2.56896,-0.7,0.59,14,20,3.44,.,.
hour,USCAN,bluecreek,2135,16JUN2019:17:00:00,26.2,27.4,26,26.5,0,17.9,19.5,23.9,25.2,23.5,27.1,25.6,19.3,16.2,12.8,231,5.498592,1.966976,17,440.7,1.58652,-1.7,0.54,14,17,3.46,.,.
hour,USCAN,bluecreek,2135,16JUN2019:18:00:00,26.2,26.4,25.8,26.2,0,17.8,19.8,24.4,25.7,23.3,26.2,25.4,19.6,16.2,12.8,196,4.738624,2.145792,19,345.2,1.24272,0.4,0.63,17,20,3.39,.,.
hour,USCAN,bluecreek,2135,16JUN2019:19:00:00,25.4,26.2,25.4,25.9,0,17.5,19.5,24.2,25.9,23.5,25.1,24.9,19.9,16.2,12.8,187,3.486912,1.519936,20,229.9,0.82764,1.1,0.66,19,22,3.34,.,.
hour,USCAN,bluecreek,2135,16JUN2019:20:00:00,21.2,25.4,19.6,22.4,0,17.2,19.5,24,25.9,23.4,24,24.2,20.2,16.2,12.8,136,2.45872,1.072896,31,39.49,0.142164,3.9,0.82,20,45,2.74,.,.
hour,USCAN,bluecreek,2135,16JUN2019:21:00:00,16.3,21.2,16.3,19.2,0,17.4,19.4,24.4,25.7,23.6,23,23.5,20.3,16.2,12.9,68,2.861056,1.430528,52,1.76,0.006336,4.8,0.86,31,52,2.24,.,.
hour,USCAN,bluecreek,2135,16JUN2019:22:00:00,17,17,16.2,16.5,0,16.9,19.3,24.4,25.2,23.5,22.2,22.6,20.3,16.3,12.9,80,3.665728,2.190496,50,0.05,0.00018,6.3,0.95,47,52,1.88,.,.
hour,USCAN,bluecreek,2135,16JUN2019:23:00:00,15.9,17,15.4,16.4,0,17,18.6,24.4,25.2,23.5,21.5,21.9,20.3,16.3,12.9,76,2.861056,2.01168,54,0.05,0.00018,6.5,0.97,50,56,1.86,.,.
hour,USCAN,bluecreek,2135,17JUN2019:00:00:00,13.5,17.6,13.5,16.1,0,16.3,18.6,24.4,25.2,23.3,20.8,21.3,20.3,16.3,12.9,66,2.816352,1.922272,65,0.05,0.00018,6.9,0.99,49,65,1.84,.,.
hour,USCAN,bluecreek,2135,17JUN2019:01:00:00,13.3,14.5,13.3,13.8,0,16.4,18.9,24.6,25.2,23.5,20.2,20.7,20.2,16.4,12.9,90,3.397504,2.056384,68,0.06,0.000216,7,1,61,68,1.58,.,.
hour,USCAN,bluecreek,2135,17JUN2019:02:00:00,14.3,14.4,13.3,13.8,0,16.6,18.7,24.6,25.5,23.2,19.7,20.3,20,16.4,12.9,82,3.889248,2.2352,64,0.08,0.000288,7.4,1.03,62,68,1.58,.,.
hour,USCAN,bluecreek,2135,17JUN2019:03:00:00,13.4,14.3,13.4,14,0,16.4,18.8,24.2,24.9,23.9,19.3,19.7,19.8,16.5,12.9,84,2.45872,1.162304,67,0.09,0.000324,7.6,1.04,63,69,1.6,.,.
hour,USCAN,bluecreek,2135,17JUN2019:04:00:00,12.4,13.4,12.3,12.9,0,16.2,19,24,25.5,23.7,18.8,19.3,19.7,16.5,12.9,76,3.039872,2.056384,72,0.09,0.000324,7.6,1.04,67,72,1.49,.,.
hour,USCAN,bluecreek,2135,17JUN2019:05:00:00,12.3,12.8,12.1,12.4,0,16.4,18.5,24.4,25.5,23.7,18.4,18.9,19.5,16.5,12.9,74,3.486912,2.503424,76,0.62,0.002232,7.9,1.06,72,77,1.44,.,.
hour,USCAN,bluecreek,2135,17JUN2019:06:00:00,12.3,12.3,11.8,12,0,16.1,18.7,23.8,25.5,23.6,18.1,18.6,19.3,16.5,12.9,76,3.263392,2.503424,79,17.23,0.062028,8.4,1.1,76,80,1.4,.,.
hour,USCAN,bluecreek,2135,17JUN2019:07:00:00,19.4,19.4,12.3,14.6,0,15.9,18.5,24.2,25.5,23.7,17.8,18.2,19.1,16.6,12.9,84,3.218688,1.743456,51,193.2,0.69552,9.2,1.17,51,79,1.68,.,.
hour,USCAN,bluecreek,2135,17JUN2019:08:00:00,20.1,20.1,19.2,19.4,0,16.1,18.5,24.1,25.5,23.9,18,18.4,19,16.6,12.9,220,2.45872,0.759968,49,411.9,1.48284,9.2,1.16,49,54,2.25,.,.
hour,USCAN,bluecreek,2135,17JUN2019:09:00:00,21.2,21.2,20.1,20.4,0,16.3,18.7,23.9,24.9,23.7,18.5,18.6,18.8,16.6,12.9,208,2.68224,1.1176,43,539.1,1.94076,8.4,1.1,41,51,2.39,.,.
hour,USCAN,bluecreek,2135,17JUN2019:10:00:00,22.7,22.7,21.2,21.6,0,16.2,19,23.7,25.7,23.3,19.2,19.1,18.6,16.6,13,204,4.291584,1.698752,37,609.4,2.19384,7.5,1.04,37,43,2.58,.,.
hour,USCAN,bluecreek,2135,17JUN2019:11:00:00,23.6,23.6,22.5,22.8,0,16.4,18.8,23.4,25.9,23.9,20.4,19.9,18.6,16.6,13,181,3.57632,1.698752,34,784.9,2.82564,7.7,1.05,34,38,2.78,.,.
hour,USCAN,bluecreek,2135,17JUN2019:12:00:00,25.4,25.4,23.6,24.2,0,16.7,19.1,23.9,25,23.3,22,20.7,18.6,16.6,13,197,4.649216,1.654048,28,935,3.366,6.7,0.98,28,34,3.02,.,.
hour,USCAN,bluecreek,2135,17JUN2019:13:00:00,25.9,25.9,24.4,25,0,16.5,18.8,23.5,25.2,23.5,23.4,21.9,18.6,16.6,13,252,6.437376,2.68224,25,644.3,2.31948,6,0.94,25,31,3.16,.,.
hour,USCAN,bluecreek,2135,17JUN2019:14:00:00,26.1,26.3,25.8,26,0,17.3,19.1,23.5,24.6,23.8,25.2,22.8,18.8,16.6,13,267,6.92912,3.442208,25,948,3.4128,4.3,0.83,22,27,3.36,.,.
hour,USCAN,bluecreek,2135,17JUN2019:15:00:00,24.8,26.5,24.8,26.1,0,17.7,19.4,23.6,25,23.4,27,24.4,19,16.6,13,322,9.298432,3.3528,27,654,2.3544,5.3,0.89,24,29,3.38,.,.
hour,USCAN,bluecreek,2135,17JUN2019:16:00:00,22.3,25.5,22.3,24.7,0,17.5,19.5,23.8,25.3,23.3,26.4,24.9,19.3,16.5,13,50,8.538464,3.933952,44,385.2,1.38672,5.9,0.94,26,44,3.12,.,.
hour,USCAN,bluecreek,2135,17JUN2019:17:00:00,21.6,23.6,21.6,22.8,0,17.3,19.3,23.9,24.6,23.3,25.8,24.7,19.6,16.5,13,116,8.002016,5.319776,43,377.1,1.35756,8.4,1.1,36,44,2.77,.,.
hour,USCAN,bluecreek,2135,17JUN2019:18:00:00,20.8,21.6,20.6,21.2,0,16.7,19.4,24.1,24.6,23.6,24.9,24.4,19.9,16.5,13,136,6.392672,3.755136,44,45.08,0.162288,7.9,1.07,39,46,2.52,.,.
hour,USCAN,bluecreek,2135,17JUN2019:19:00:00,19,20.8,18.4,19.3,0,16.7,19,23.6,24.6,23.9,23.8,23.7,20.1,16.5,13,176,4.157472,2.369312,48,17.96,0.064656,9.2,1.16,44,57,2.24,.,.
hour,USCAN,bluecreek,2135,17JUN2019:20:00:00,.,.,.,.,.,.,.,.,.,.,.,.,.,.,.,.,.,.,.,.,.,7.8,1.06,.,.,2.24,.,.
hour,USCAN,bluecreek,2135,17JUN2019:21:00:00,.,.,.,.,.,.,.,.,.,.,.,.,.,.,.,.,.,.,.,.,.,7.3,1.02,.,.,2.08,.,.
hour,USCAN,bluecreek,2135,17JUN2019:22:00:00,16.5,18.1,16.5,17.7,0,16.4,18.6,24.1,25.5,23.7,21.6,21.9,20.3,16.6,13.1,166,5.230368,2.190496,59,0.04,0.000144,6.9,1,46,59,2.03,.,.
hour,USCAN,bluecreek,2135,17JUN2019:23:00:00,15.9,16.5,15.8,16.2,0,16.3,18.9,24.1,25.3,23.9,21,21.3,20.3,16.7,13.1,18,4.425696,1.654048,61,0.04,0.000144,8.7,1.12,59,63,1.84,.,.
hour,USCAN,cachejct,2136,15JUN2019:00:00:00,13.3,14.6,13.2,13.9,0,40.1,34.2,43.6,38.6,40.3,18.8,19.6,17.8,14.3,12.3,315,2.145792,0.625856,82,0,0,10.4,1.26,75,83,1.59,.,.
hour,USCAN,cachejct,2136,15JUN2019:01:00:00,12.2,13.3,11.2,12.4,0,39.6,34.3,44,38.6,40.2,18.4,19.3,17.7,14.3,12.4,293,2.45872,0.983488,87,0,0,9.9,1.22,82,90,1.44,.,.
hour,USCAN,cachejct,2136,15JUN2019:02:00:00,11.4,12.4,11.3,11.8,0,39.9,33.9,43.4,38.2,40.3,18,18.9,17.7,14.3,12.3,288,1.966976,0.983488,85,0,0,9.7,1.2,84,90,1.39,.,.
hour,USCAN,cachejct,2136,15JUN2019:03:00:00,11.1,11.8,10,10.8,0,39.6,34.5,44,38.7,40.3,17.6,18.6,17.6,14.3,12.4,314,2.145792,0.536448,90,0,0,9,1.15,85,92,1.3,.,.
hour,USCAN,cachejct,2136,15JUN2019:04:00:00,9.6,11.1,9.6,10.5,0,39.7,33.9,44,38.2,40.3,17.2,18.3,17.6,14.3,12.4,334,1.877568,0.715264,94,0,0,9.2,1.16,90,94,1.27,.,.
hour,USCAN,cachejct,2136,15JUN2019:05:00:00,9.7,9.7,9.4,9.6,0,39.1,33.9,44,38.7,40.4,16.8,18,17.5,14.3,12.3,311,1.1176,0.22352,95,1.16,0.004176,8.8,1.13,94,96,1.19,.,.
hour,USCAN,cachejct,2136,15JUN2019:06:00:00,12,12,9.2,9.9,0,39.1,34,43.3,38.7,40.3,16.5,17.7,17.4,14.3,12.4,302,2.145792,0.938784,86,55.95,0.20142,8.6,1.12,86,95,1.22,.,.
hour,USCAN,cachejct,2136,15JUN2019:07:00:00,16.4,16.4,12,13.2,0,39.3,33.7,43.3,38.6,40.3,16.3,17.4,17.3,14.3,12.4,25,1.56464,0.536448,74,207,0.7452,10.9,1.3,74,88,1.52,.,.
hour,USCAN,cachejct,2136,15JUN2019:08:00:00,18,18,16.4,16.9,0,39.2,33.8,43.5,38.2,40.3,16.7,17.4,17.2,14.4,12.4,144,2.548128,1.162304,62,367.4,1.32264,11.4,1.34,62,74,1.92,.,.
hour,USCAN,cachejct,2136,15JUN2019:09:00:00,21,21,18,19.2,0,39,33.9,43.3,38.6,40.3,17.4,17.4,17.2,14.4,12.4,149,2.726944,1.430528,55,523,1.8828,11.2,1.33,55,63,2.22,.,.
hour,USCAN,cachejct,2136,15JUN2019:10:00:00,23.6,23.6,21,22.2,0,39.5,33.7,43.3,38.2,40.3,18.5,17.9,17,14.4,12.4,139,2.414016,0.938784,51,659.9,2.37564,11.9,1.4,50,55,2.68,.,.
hour,USCAN,cachejct,2136,15JUN2019:11:00:00,26.2,26.2,23.6,24.5,0,40.1,33.9,43.7,38.2,40.3,19.8,18.6,17,14.4,12.4,28,3.486912,1.1176,32,771.9,2.77884,11.6,1.37,32,51,3.08,.,.
hour,USCAN,cachejct,2136,15JUN2019:12:00:00,25,26.2,24.3,25,0,40.1,33.8,43.1,38.7,40.3,20.7,19.3,16.9,14.4,12.4,121,4.202176,1.519936,39,414.6,1.49256,9.9,1.22,32,44,3.17,.,.
hour,USCAN,cachejct,2136,15JUN2019:13:00:00,25.8,26.5,25,25.9,0,39.9,34,43.7,38.7,40.2,21.4,19.8,17,14.4,12.4,180,7.331456,2.324608,32,674.7,2.42892,9.2,1.16,30,39,3.34,.,.
hour,USCAN,cachejct,2136,15JUN2019:14:00:00,24.3,26.4,24.3,25.6,0,40.5,34.2,43.3,38.2,40.3,21.8,20.2,17,14.4,12.4,228,9.030208,3.755136,41,292.9,1.05444,8,1.07,29,41,3.28,.,.
hour,USCAN,cachejct,2136,15JUN2019:15:00:00,27,27,24,25.5,0,40.6,34.2,43.7,38.7,40.2,22,20.4,17.1,14.4,12.4,227,8.27024,3.710432,30,649.7,2.33892,9.3,1.17,29,43,3.27,.,.
hour,USCAN,cachejct,2136,15JUN2019:16:00:00,27.5,27.5,27,27.3,0,40.4,33.8,43.3,38.6,40.3,22.6,20.7,17.2,14.4,12.4,192,8.538464,5.230368,22,663.6,2.38896,6.7,0.98,22,30,3.62,.,.
hour,USCAN,cachejct,2136,15JUN2019:17:00:00,27.7,27.7,27.3,27.4,0,40.5,34.3,43.5,38.7,40.2,22.7,20.9,17.3,14.6,12.4,192,7.107936,4.336288,22,495.9,1.78524,3.7,0.8,20,23,3.66,.,.
hour,USCAN,cachejct,2136,15JUN2019:18:00:00,25.8,27.7,25.8,27.1,0,40.6,33.8,43.4,38.7,40.3,22.1,20.9,17.5,14.4,12.4,191,7.15264,3.844544,27,280.5,1.0098,4.4,0.83,22,27,3.59,.,.
hour,USCAN,cachejct,2136,15JUN2019:19:00:00,24.8,26.2,24.1,25.2,0,40.1,34.2,43.5,38.2,40.3,21.4,20.8,17.6,14.6,12.4,190,4.112768,2.592832,32,132.1,0.47556,5.5,0.9,26,32,3.2,.,.
hour,USCAN,cachejct,2136,15JUN2019:20:00:00,19.8,24.8,19.8,22.8,0,40.1,34.4,43.4,38.6,40.2,20.8,20.5,17.6,14.4,12.4,117,2.2352,0.715264,50,42.36,0.152496,8.3,1.1,32,52,2.78,.,.
hour,USCAN,cachejct,2136,15JUN2019:21:00:00,16.2,19.8,16.2,18,0,39.5,34,43.6,38.7,40.2,20.1,20.2,17.7,14.6,12.4,330,2.816352,1.207008,65,1.04,0.003744,8.8,1.14,49,67,2.07,.,.
hour,USCAN,cachejct,2136,15JUN2019:22:00:00,16.6,16.6,15.3,15.8,0,39.7,33.9,43.4,38.2,40.2,19.5,19.9,17.7,14.6,12.4,348,4.02336,1.56464,61,0,0,10.1,1.24,61,72,1.8,.,.
hour,USCAN,cachejct,2136,15JUN2019:23:00:00,13.8,17,13.8,16.7,0,39.6,34,43.8,38.7,40.3,19,19.5,17.8,14.4,12.4,305,1.832864,0.759968,69,0,0,8.2,1.08,55,69,1.9,.,.
hour,USCAN,cachejct,2136,16JUN2019:00:00:00,12.7,13.8,12.7,13.3,0,39.1,34.1,43.4,38.6,40.3,18.5,19.2,17.7,14.6,12.4,298,2.637536,0.89408,73,0,0,8.9,1.14,69,78,1.53,.,.
hour,USCAN,cachejct,2136,16JUN2019:01:00:00,12,13,10.9,11.9,0,39.1,33.6,43.4,38.6,40.2,18,18.8,17.7,14.6,12.4,283,2.369312,0.938784,75,0,0,7.9,1.06,72,81,1.39,.,.
hour,USCAN,cachejct,2136,16JUN2019:02:00:00,10.2,12.2,10.2,11.4,0,39.2,33.9,43.4,38.7,40.2,17.6,18.6,17.7,14.6,12.5,308,2.01168,0.804672,86,0,0,8,1.07,75,88,1.35,.,.
hour,USCAN,cachejct,2136,16JUN2019:03:00:00,10.5,11.7,10.2,11,0,38.7,33.6,43.5,38.6,40.3,17.2,18.2,17.6,14.6,12.5,296,1.922272,0.402336,84,0,0,7.9,1.06,77,86,1.31,.,.
hour,USCAN,cachejct,2136,16JUN2019:04:00:00,9.3,10.9,9.3,10.4,0,38.8,33.5,43.4,38.5,40.3,16.9,18,17.6,14.6,12.5,293,1.922272,0.938784,89,0,0,7.6,1.04,79,89,1.26,.,.
hour,USCAN,cachejct,2136,16JUN2019:05:00:00,9.2,9.3,8.8,9.1,0,38.7,33.6,43.4,38.2,40.3,16.5,17.7,17.4,14.6,12.5,302,2.68224,0.849376,91,1.29,0.004644,7.6,1.05,89,92,1.15,.,.
hour,USCAN,cachejct,2136,16JUN2019:06:00:00,10,10,8.7,9,0,38.8,33.5,43.5,38.6,40.3,16.2,17.4,17.3,14.6,12.5,315,1.922272,0.491744,86,34.42,0.123912,7.7,1.05,86,94,1.15,.,.
hour,USCAN,cachejct,2136,16JUN2019:07:00:00,13,13,10,10.8,0,38.9,33,43.8,38.6,40.3,16.1,17.2,17.3,14.6,12.5,153,1.78816,0.581152,82,179.4,0.64584,8.2,1.09,82,86,1.3,.,.
hour,USCAN,cachejct,2136,16JUN2019:08:00:00,16.9,16.9,13,14.7,0,38.8,33.2,43.3,38.2,40.2,16.3,17,17.2,14.7,12.5,113,1.922272,0.67056,60,382.9,1.37844,9.7,1.2,60,82,1.68,.,.
hour,USCAN,cachejct,2136,16JUN2019:09:00:00,18.5,18.7,16.9,18,0,39,33.2,42.8,38.7,40.3,17,17.2,17.1,14.6,12.5,97,1.922272,0.759968,54,541.1,1.94796,8.8,1.13,53,60,2.07,.,.
hour,USCAN,cachejct,2136,16JUN2019:10:00:00,20.9,20.9,18.5,19.3,0,39.3,33,43.1,38.6,40.3,18.1,17.6,17,14.7,12.5,1,2.01168,0.759968,43,666.9,2.40084,8.5,1.11,43,54,2.24,.,.
hour,USCAN,cachejct,2136,16JUN2019:11:00:00,24,24,20.9,22.1,0,39.1,33.1,43.1,38.3,40.2,19.3,18.2,16.9,14.6,12.5,16,1.832864,0.67056,34,780.7,2.81052,6.7,0.99,33,43,2.66,.,.
hour,USCAN,cachejct,2136,16JUN2019:12:00:00,25.6,25.6,24,24.3,0,39.7,33,43.3,38.6,40.3,20.6,19,16.9,14.6,12.5,54,2.324608,0.983488,28,852,3.0672,6,0.94,27,35,3.04,.,.
hour,USCAN,cachejct,2136,16JUN2019:13:00:00,27.3,27.3,25.6,26.3,0,39.8,33.4,43.1,38.2,40.2,21.8,19.7,16.9,14.6,12.5,208,6.750304,1.78816,22,867,3.1212,5.1,0.88,22,29,3.43,.,.
hour,USCAN,cachejct,2136,16JUN2019:14:00:00,27.3,27.5,27,27.3,0,39.9,34,43.1,38.7,40.3,23,20.4,17,14.6,12.5,220,7.644384,3.486912,21,810,2.916,4.6,0.85,21,26,3.62,.,.
hour,USCAN,cachejct,2136,16JUN2019:15:00:00,27.4,27.7,27,27.2,0,40.1,33.9,43.3,38.2,40.3,23.6,21.1,17,14.6,12.5,207,8.49376,3.665728,24,706.4,2.54304,4.5,0.85,21,26,3.62,.,.
hour,USCAN,cachejct,2136,16JUN2019:16:00:00,27.8,28,27.4,27.7,0,40.1,33.3,43.1,38.6,40.2,24,21.4,17.2,14.6,12.5,210,8.583168,4.425696,19,658.3,2.36988,4.1,0.82,19,24,3.72,.,.
hour,USCAN,cachejct,2136,16JUN2019:17:00:00,27.5,27.8,27.1,27.5,0,40.6,34,42.8,38.2,40.2,23.9,21.7,17.4,14.6,12.5,193,8.627872,3.933952,25,469.2,1.68912,3.5,0.79,19,25,3.67,.,.
hour,USCAN,cachejct,2136,16JUN2019:18:00:00,26.5,27.5,26.4,27.1,0,40.1,34.1,43.8,38.7,40.2,23.3,21.7,17.6,14.6,12.6,174,5.36448,2.995168,26,412.3,1.48428,4.4,0.84,21,27,3.59,.,.
hour,USCAN,cachejct,2136,16JUN2019:19:00:00,25.1,26.5,25,25.6,0,39.7,33.4,43.6,38.2,40.2,22.7,21.6,17.7,14.6,12.5,160,4.112768,2.861056,31,223.4,0.80424,6.4,0.96,26,32,3.28,.,.
hour,USCAN,cachejct,2136,16JUN2019:20:00:00,20.6,25.1,20.6,23.3,0,39.5,34,43.4,38.2,40.2,22,21.4,17.8,14.7,12.5,197,3.889248,1.519936,47,43.17,0.155412,7.6,1.04,31,47,2.86,.,.
hour,USCAN,cachejct,2136,16JUN2019:21:00:00,18.4,20.6,18.1,19.1,0,39.3,33.6,43.4,38.2,40.2,21.2,21.1,18,14.6,12.5,334,1.922272,0.89408,48,0.92,0.003312,8.8,1.14,47,54,2.21,.,.
hour,USCAN,cachejct,2136,16JUN2019:22:00:00,16.8,18.4,16.4,17.4,0,39.7,33.3,43.4,38.6,40.2,20.5,20.7,18,14.7,12.6,293,1.654048,0.536448,62,0,0,7.8,1.06,48,62,1.98,.,.
hour,USCAN,cachejct,2136,16JUN2019:23:00:00,15.4,16.8,14.6,15.7,0,39.1,33.7,43.4,38.2,40.2,20,20.3,18.1,14.7,12.6,329,2.2352,0.983488,71,0,0,10.4,1.26,62,76,1.78,.,.
hour,USCAN,cachejct,2136,17JUN2019:00:00:00,14.5,16.3,14.5,15.4,0,38.7,33.6,43.4,38.6,40.3,19.5,20,18.1,14.6,12.6,280,3.173984,1.1176,72,0,0,8.8,1.13,60,72,1.75,.,.
hour,USCAN,cachejct,2136,17JUN2019:01:00:00,13.4,14.5,12.3,13.2,0,38.7,33,43.6,38.6,40.2,18.9,19.7,18.1,14.6,12.6,326,1.922272,0.849376,77,0,0,9.9,1.22,72,86,1.52,.,.
hour,USCAN,cachejct,2136,17JUN2019:02:00:00,11.5,13.4,11.1,12.3,0,38.4,32.8,43.4,38.3,40.3,18.5,19.3,18,14.7,12.6,312,2.279904,0.983488,88,0,0,9.4,1.18,76,90,1.43,.,.
hour,USCAN,cachejct,2136,17JUN2019:03:00:00,11.3,13.1,11.3,12.2,0,38.8,33.4,43.4,38.6,40.2,18.1,19,18,14.7,12.6,298,2.056384,0.804672,89,0,0,9,1.15,72,89,1.42,.,.
hour,USCAN,cachejct,2136,17JUN2019:04:00:00,10.2,11.3,10.1,10.7,0,38.5,33.1,43.4,38.2,40.2,17.7,18.7,18,14.7,12.6,314,1.78816,0.804672,88,0,0,9,1.14,88,90,1.29,.,.
hour,USCAN,cachejct,2136,17JUN2019:05:00:00,10.9,10.9,10.1,10.4,0,38.5,32.8,43.4,38.7,40.3,17.3,18.4,17.9,14.7,12.6,298,1.78816,0.581152,84,0.57,0.002052,8.7,1.12,84,90,1.26,.,.
hour,USCAN,cachejct,2136,17JUN2019:06:00:00,10.8,11.3,10.3,10.8,0,38.4,32.9,43.4,38.6,40.3,17,18.1,17.8,14.7,12.6,306,1.251712,0.312928,88,26.42,0.095112,8.2,1.08,82,88,1.29,.,.
hour,USCAN,cachejct,2136,17JUN2019:07:00:00,15.9,15.9,10.8,13.2,0,38.5,33,42.8,38.7,40.2,16.9,17.8,17.7,14.7,12.6,345,1.34112,0.357632,71,210,0.756,9.9,1.22,71,88,1.52,.,.
hour,USCAN,cachejct,2136,17JUN2019:08:00:00,17.6,17.6,15.9,16.5,0,38,33.1,43.2,38.2,40.3,17.1,17.7,17.6,14.7,12.6,139,2.771648,0.849376,62,362.5,1.305,10.4,1.26,62,71,1.88,.,.
hour,USCAN,cachejct,2136,17JUN2019:09:00:00,19.8,19.9,17.6,18.8,0,38.6,33.1,43.2,38.6,40.3,17.8,17.8,17.4,14.6,12.6,139,2.90576,1.385824,54,459.2,1.65312,10.3,1.25,53,62,2.18,.,.
hour,USCAN,cachejct,2136,17JUN2019:10:00:00,23.1,23.2,19.8,21.5,0,38.7,33,43.3,38.6,40.2,18.7,18.2,17.4,14.9,12.6,33,2.190496,0.491744,47,644.9,2.32164,10.3,1.25,42,54,2.57,.,.
hour,USCAN,cachejct,2136,17JUN2019:11:00:00,25.9,25.9,23.1,23.9,0,38.7,32.8,43.2,38.2,40.2,20,18.8,17.4,14.9,12.6,85,5.006848,1.519936,33,772.6,2.78136,10.6,1.28,33,47,2.96,.,.
hour,USCAN,cachejct,2136,17JUN2019:12:00:00,25.9,25.9,25.5,25.7,0,39.2,32.7,43.3,38.7,40.3,21.1,19.5,17.3,14.9,12.6,244,7.510272,3.79984,34,824,2.9664,8.2,1.09,31,34,3.3,.,.
hour,USCAN,cachejct,2136,17JUN2019:13:00:00,26.3,26.6,25.6,26.1,0,39.6,33.1,43.2,38.6,40.1,22.2,20.2,17.4,14.7,12.6,228,7.242048,4.604512,33,829,2.9844,9.1,1.16,32,37,3.37,.,.
hour,USCAN,cachejct,2136,17JUN2019:14:00:00,27.4,27.5,26.3,26.9,0,39.6,32.9,42.9,38.6,40.2,23.3,20.8,17.4,14.9,12.6,249,6.92912,2.68224,30,789.9,2.84364,8.2,1.08,28,33,3.54,.,.
hour,USCAN,cachejct,2136,17JUN2019:15:00:00,26.6,27.4,25.6,26.8,0,39.8,33.7,42.9,38.6,40.3,23.9,21.4,17.5,14.9,12.6,256,7.331456,3.263392,36,524.6,1.88856,8.4,1.1,30,36,3.54,.,.